User: anonymous   Login
Location: Mentone
(34.5413°N, 85.5351°W)
Time: 14:02:33
(UTC-05:00)
Language:

S-56A Canister/Altair - Orbit

View from above orbital plane
View from above orbital plane
View from above satellite
View from above satellite

Ground track
Ground track

The orbit data is extracted from the following two-line orbital elements,

1 00082U 61004B   16270.25502056  .00000094  00000-0  12544-3 0  9994
2 00082  38.8533 193.6893 1166562   0.2447 359.8630 12.25780260640877
Epoch (UTC): 26 September 2016 06:07:13
Eccentricity: 0.1166562
inclination: 38.8533°
perigee height: 640 km
apogee height: 2494 km
right ascension of ascending node: 193.6893°
argument of perigee: 0.2447°
revolutions per day: 12.25780260
mean anomaly at epoch: 359.8630°
orbit number at epoch: 64087

The dashed part of the orbit path shows where the satellite is in the earth's shadow,  

DLR